Flag for Germany Weather past 2 weeks in Bonn, North Rhine-Westphalia, Germany

Now
54 °F

Low clouds.


Feels Like: 53 °F
Forecast: 46 / 64 °F
Wind: 6 mph from Southwest

Location: Bonn-Hangelar

Current Time: Aug 23, 2014 at 9:49:46 AM

Latest Report: Aug 23, 2014 at 9:00 AM


Visibility: 19 mi

Pressure: 29.93 "Hg

Humidity: 86%

Dew point: 50 °F

Location of BonnLocation

Historic Weather in Bonn — Graph

°F

Bonn temperature yesterday

Maximum temperature yesterday: 64 °F (at 4:00 PM)
Minimum temperature yesterday: 53 °F (at 5:00 AM)
Average temperature yesterday: 57 °F

Past Weeks' High & Low Weather Summary

 TemperatureHumidityPressure
High76 °F (Aug 8, 2:00 PM)98% (Aug 9, 12:00 AM)30.13 "Hg (Aug 9, 12:00 AM)
Low47 °F (Aug 21, 6:00 AM)51% (Aug 22, 4:00 PM)29.57 "Hg (Aug 10, 6:00 PM)
Average58 °F80%29.88 "Hg
* Reported Aug 8 8:00 AM — Aug 23 8:00 AM, Bonn, Weather by CustomWeather, © 2014

Note: Actual official high and low records may vary slightly from our data, if they occured in-between our weather recording intervals... More about our weather records

Advertising

Bonn weather history for previous 24 hours

 ConditionsComfort  
Time TempWeatherWind HumidityBarometerVisibility
8:00 AM
Aug 23
53 °FPartly sunny.6 mph94%29.92 "Hg8 mi
7:00 AM52 °FPartly sunny.3 mph95%29.92 "Hg9 mi
6:00 AM52 °FLow clouds.3 mph95%29.91 "Hg12 mi
5:00 AM53 °FOvercast.5 mph94%29.91 "Hg7 mi
4:00 AM52 °FLow clouds.5 mph95%29.92 "Hg5 mi
3:00 AM52 °FOvercast.5 mph95%29.92 "Hg6 mi
2:00 AM53 °FOvercast.5 mph95%29.92 "Hg7 mi
1:00 AM53 °FOvercast.5 mph95%29.93 "Hg10 mi
12:00 AM54 °FHaze.3 mph94%29.92 "Hg14 mi
11:00 PM
Aug 22
54 °FOvercast.3 mph91%29.92 "Hg19 mi
10:00 PM55 °FOvercast.5 mph88%29.92 "Hg34 mi
9:00 PM55 °FOvercast.6 mph86%29.90 "Hg28 mi
8:00 PM55 °FLight rain. Overcast.5 mph90%29.89 "Hg22 mi
7:00 PM54 °FLight rain. Overcast.6 mph94%29.90 "Hg16 mi
6:00 PM62 °FSprinkles. Overcast.6 mph58%29.87 "Hg31 mi
5:00 PM63 °FOvercast.8 mph56%29.87 "Hg31 mi
4:00 PM64 °FOvercast.8 mph51%29.87 "Hg31 mi
3:00 PM63 °FOvercast.9 mph55%29.88 "Hg31 mi
2:00 PM62 °FOvercast.7 mph61%29.88 "Hg31 mi
1:00 PM62 °FOvercast.8 mph61%29.89 "Hg31 mi
12:00 PM62 °FOvercast.9 mph57%29.89 "Hg31 mi
11:00 AM60 °FOvercast.9 mph59%29.90 "Hg31 mi
10:00 AM59 °FOvercast.6 mph64%29.90 "Hg31 mi
9:00 AM56 °FOvercast.7 mph67%29.91 "Hg31 mi
Weather by CustomWeather, © 2014

See weather overviewHow to use our weather pages